This is the latest recevied weather packets stored in our database for station/object W2JGA. If no packets are shown the sender has not sent any weather packets the latest 10 day(s).
| Time | Temp. | Humidity | Pressure | Rain* | Wind** | Luminosity | Snow |
|---|---|---|---|---|---|---|---|
| 1778116377 | 26.11° C | 25% | 1015.8 hPa | 0 mm | - | 127 W/m² | - |
| 1778116076 | 25.56° C | 25% | 1015.8 hPa | 0 mm | - | 135 W/m² | - |
| 1778115772 | 26.11° C | 26% | 1015.8 hPa | 0 mm | - | 153 W/m² | - |
| 1778115470 | 26.11° C | 25% | 1015.8 hPa | 0 mm | - | 171 W/m² | - |
| 1778115166 | 26.11° C | 25% | 1015.8 hPa | 0 mm | - | 190 W/m² | - |
| 1778114862 | 26.11° C | 25% | 1015.8 hPa | 0 mm | - | 201 W/m² | - |
| 1778114561 | 26.67° C | 24% | 1015.8 hPa | 0 mm | - | 233 W/m² | - |
| 1778114256 | 26.11° C | 24% | 1015.8 hPa | 0 mm | - | 248 W/m² | - |
| 1778113952 | 26.67° C | 24% | 1015.8 hPa | 0 mm | - | 266 W/m² | - |
| 1778113648 | 26.67° C | 25% | 1015.8 hPa | 0 mm | - | 272 W/m² | - |
| 1778113344 | 26.67° C | 24% | 1015.8 hPa | 0 mm | - | 290 W/m² | - |
| 1778113041 | 26.67° C | 24% | 1015.8 hPa | 0 mm | - | 310 W/m² | - |
| 1778112738 | 26.11° C | 24% | 1015.8 hPa | 0 mm | - | 326 W/m² | - |
| 1778112434 | 26.11° C | 24% | 1016.1 hPa | 0 mm | - | 347 W/m² | - |
| 1778112130 | 27.22° C | 24% | 1015.8 hPa | 0 mm | - | 379 W/m² | - |
| 1778111828 | 27.22° C | 25% | 1015.8 hPa | 0 mm | - | 392 W/m² | - |
| 1778111523 | 26.67° C | 25% | 1015.8 hPa | 0 mm | - | 398 W/m² | - |
| 1778111220 | 26.67° C | 24% | 1015.8 hPa | 0 mm | - | 435 W/m² | - |
| 1778110917 | 26.67° C | 24% | 1015.8 hPa | 0 mm | - | 439 W/m² | - |
| 1778110614 | 26.67° C | 24% | 1015.8 hPa | 0 mm | - | 433 W/m² | - |
| 1778110311 | 27.22° C | 24% | 1015.8 hPa | 0 mm | - | 469 W/m² | - |
| 1778110007 | 26.67° C | 24% | 1015.8 hPa | 0 mm | - | 491 W/m² | - |
| 1778109703 | 26.11° C | 24% | 1015.8 hPa | 0 mm | - | 488 W/m² | - |
| 1778109400 | 26.67° C | 25% | 1015.8 hPa | 0 mm | - | 516 W/m² | - |
| 1778109099 | 26.67° C | 24% | 1016.1 hPa | 0 mm | - | 491 W/m² | - |
* Rain latest hour (hover to see other rain measurements)
** Current wind speed in m/s (hover to see current wind gust speed)